Date,TemperatureHighF,TemperatureAvgF,TemperatureLowF,DewpointHighF,DewpointAvgF,DewpointLowF,HumidityHigh,HumidityAvg,HumidityLow,PressureMaxIn,PressureMinIn,WindSpeedMaxMPH,WindSpeedAvgMPH,GustSpeedMaxMPH,PrecipitationSumIn
2013-1-1,21,10,4,6,-2,-6,64,59,48,23.39,23.26,6,1,6,0.00
2013-1-2,30,9,-1,11,-4,-13,65,54,39,23.42,23.35,4,1,4,0.00
2013-1-3,33,8,-3,11,-7,-15,59,49,33,23.42,23.38,4,1,4,0.00
2013-1-4,36,12,0,9,-5,-12,59,48,24,23.40,23.32,6,1,6,0.00
2013-1-5,40,16,3,15,1,-9,59,51,29,23.45,23.33,10,2,10,0.00
2013-1-6,36,26,14,10,2,-3,51,36,24,23.33,23.18,11,0,11,0.00
2013-1-7,40,22,8,11,2,-7,58,43,22,23.27,23.18,8,2,8,0.00
2013-1-8,37,29,22,23,18,10,72,65,53,23.47,23.24,7,1,7,0.00
2013-1-9,43,29,15,25,14,7,74,54,36,23.47,23.07,15,3,15,0.00
2013-1-10,35,28,15,22,14,4,78,56,42,23.07,22.73,19,4,19,0.00
2013-1-11,15,11,8,5,0,-12,66,61,52,23.36,22.73,6,2,6,0.00
2013-1-12,13,3,-7,1,-9,-20,65,55,46,23.09,22.99,5,1,5,0.00
2013-1-13,12,-3,-13,-3,-16,-26,56,51,41,23.16,23.07,3,1,3,0.00
2013-1-14,8,-4,-14,-7,-18,-27,58,49,42,23.31,23.16,5,1,5,0.00
2013-1-15,26,9,0,7,-4,-14,65,55,36,23.53,23.30,3,0,3,0.00
2013-1-16,29,14,5,12,3,-5,67,59,43,23.58,23.52,3,0,3,0.00
2013-1-17,38,17,4,19,5,-5,68,58,41,23.58,23.49,4,1,4,0.00
2013-1-18,42,19,6,19,5,-4,67,55,34,23.50,23.43,4,2,4,0.00
2013-1-19,44,21,8,16,5,-4,65,52,24,23.54,23.44,4,2,4,0.00
2013-1-20,42,19,6,14,2,-5,61,48,24,23.49,23.43,6,2,6,0.00
2013-1-21,44,22,10,17,5,-4,60,48,25,23.50,23.42,5,1,5,0.00
2013-1-22,48,23,9,16,4,-5,61,46,24,23.45,23.39,5,2,5,0.01
2013-1-23,49,37,21,21,11,-5,50,34,18,23.42,23.36,11,2,11,0.04
2013-1-24,43,37,33,34,27,17,85,70,36,23.42,23.34,9,1,9,0.06
2013-1-25,40,35,31,33,29,26,85,80,71,23.42,23.30,6,1,6,0.00
2013-1-26,43,36,27,30,27,21,82,72,58,23.29,23.05,11,2,11,0.04
2013-1-27,38,30,22,30,24,14,85,77,65,23.05,22.90,11,0,11,0.00
2013-1-28,30,18,12,17,5,-1,71,58,43,23.08,22.99,0,0,0,0.00
2013-1-29,25,16,6,11,4,-5,69,59,49,23.23,22.97,0,0,0,0.00
2013-1-30,34,26,17,22,15,7,74,64,57,23.33,23.23,11,2,11,0.00
2013-1-31,40,31,28,23,19,16,67,61,47,23.43,23.32,10,2,10,0.01
2013-2-1,45,28,18,25,15,7,74,60,43,23.50,23.35,7,2,7,0.04
2013-2-2,46,25,13,22,10,3,68,54,27,23.54,23.44,5,1,5,0.05
2013-2-3,51,26,16,18,8,2,61,48,21,23.44,23.26,6,1,6,0.01
2013-2-4,48,25,11,17,7,1,64,49,26,23.33,23.28,8,2,8,0.00
2013-2-5,54,35,19,21,12,6,58,40,22,23.30,23.10,6,2,6,0.00
2013-2-6,47,30,14,22,10,1,61,45,23,23.29,23.09,6,1,6,0.00
2013-2-7,47,26,8,12,4,-6,65,42,20,23.29,23.09,15,3,15,0.00
2013-2-8,35,28,21,21,15,8,75,58,44,23.10,22.86,17,4,17,0.00
2013-2-9,32,22,14,19,12,3,74,66,50,22.90,22.84,7,1,7,0.00
2013-2-11,32,16,4,12,-2,-15,64,44,31,23.26,23.16,6,1,6,0.00
2013-2-12,29,16,2,12,3,-10,67,58,42,23.39,23.26,8,2,8,0.00
2013-2-13,39,25,13,21,14,4,72,62,44,23.39,23.32,8,1,8,0.05
2013-2-14,44,27,14,26,12,2,65,54,38,23.48,23.31,6,2,6,0.05
2013-2-15,43,24,13,23,11,3,67,56,33,23.54,23.46,5,1,5,0.00
2013-2-16,50,29,13,22,9,-4,67,46,22,23.53,23.19,8,2,8,0.00
2013-2-17,49,29,14,19,7,-2,55,40,24,23.19,23.03,6,2,6,0.00
2013-2-18,33,21,6,10,0,-9,66,42,21,23.22,23.10,11,3,11,0.00
2013-2-19,43,29,18,8,1,-5,40,29,22,23.10,22.85,14,5,14,0.00
2013-2-20,39,29,23,18,13,2,65,52,34,22.92,22.81,8,2,8,0.00
2013-2-21,31,21,11,15,7,-2,68,54,42,23.12,22.92,6,1,6,0.00
2013-2-22,31,18,9,14,2,-5,65,51,31,23.20,23.10,7,2,7,0.24
2013-2-23,29,20,15,16,8,1,72,58,46,23.15,22.89,13,3,13,0.00
2013-2-24,32,18,6,10,2,-6,61,51,32,23.29,23.05,4,2,4,0.00
2013-2-25,38,18,3,11,2,-8,63,49,26,23.30,23.10,9,2,9,0.01
2013-2-26,28,19,6,8,2,-9,59,47,36,23.35,23.10,7,2,7,0.00
2013-2-27,35,15,2,7,-4,-10,64,45,26,23.45,23.34,7,2,7,0.01
2013-2-28,41,25,7,15,6,-6,57,45,24,23.54,23.42,7,2,7,0.00
2013-3-1,47,33,25,28,20,13,68,59,45,23.60,23.53,5,1,5,0.00
2013-3-2,53,36,19,28,19,12,74,52,31,23.59,23.30,6,1,6,0.00
2013-3-3,39,35,32,30,26,15,84,71,45,23.29,23.09,8,1,8,2.95
2013-3-4,37,26,10,28,7,-7,84,48,22,23.34,23.09,0,0,0,0.09
2013-3-5,50,29,9,13,4,-8,53,35,20,23.35,23.18,12,2,12,0.00
2013-3-6,54,38,25,24,14,6,50,37,23,23.19,23.03,15,4,15,0.00
2013-3-7,44,36,33,26,24,22,73,63,43,23.13,23.08,3,0,5,0.04
2013-3-8,42,34,30,30,26,23,81,71,50,23.11,22.94,9,1,9,0.01
2013-3-9,38,30,18,28,20,5,81,67,44,23.34,22.94,4,0,4,0.00
2013-3-10,49,30,14,24,10,4,65,47,24,23.44,23.34,6,1,6,0.26
2013-3-11,47,33,19,26,18,8,64,53,41,23.42,23.31,6,1,8,0.01
2013-3-12,56,39,29,32,25,21,72,58,37,23.45,23.34,8,2,8,0.04
2013-3-13,56,42,28,32,24,17,74,52,31,23.52,23.44,8,2,8,0.01
2013-3-14,68,48,33,29,23,18,57,41,20,23.49,23.39,8,2,8,0.00
2013-3-15,71,50,34,33,24,16,70,40,15,23.40,23.25,7,2,7,0.00
2013-3-16,62,40,30,32,19,7,75,46,21,23.25,23.06,5,2,5,0.00
2013-3-17,42,34,26,28,19,6,80,54,27,23.16,23.01,11,2,11,0.07
2013-3-18,45,32,23,22,14,8,76,49,27,23.25,23.15,7,1,7,0.01
2013-3-19,53,34,19,15,6,-4,57,32,20,23.36,23.24,7,1,7,0.00
2013-3-20,41,36,31,36,24,-1,93,66,22,23.31,23.02,10,3,10,0.28
2013-3-21,42,31,17,33,15,-4,91,55,24,23.14,22.96,8,1,8,0.04
2013-3-22,29,20,16,16,8,0,73,59,37,23.12,23.01,5,1,5,0.00
2013-3-23,34,18,8,13,6,-3,72,58,32,23.26,23.08,5,1,5,0.06
2013-3-24,31,17,4,16,4,-5,67,55,32,23.27,23.22,8,1,8,0.00
2013-3-25,46,27,6,21,9,-4,65,49,24,23.29,23.21,8,2,8,0.02
2013-3-26,54,38,28,28,20,14,83,50,23,23.22,23.13,11,2,11,0.01
2013-3-27,56,39,25,31,21,15,80,53,23,23.23,23.17,9,2,9,0.00
2013-3-28,64,46,30,30,23,16,66,43,21,23.29,23.22,15,1,15,0.00
2013-3-29,65,46,33,36,28,23,84,55,25,23.39,23.30,7,2,7,0.00
2013-3-30,64,44,30,32,25,18,74,51,25,23.39,23.34,4,1,4,0.00
2013-3-31,65,44,25,30,21,14,76,46,20,23.36,23.21,9,2,9,0.00
2013-4-1,53,39,33,40,33,27,93,80,52,23.23,23.15,15,2,15,0.18
2013-4-2,47,37,32,36,31,27,93,80,59,23.29,23.16,5,0,5,0.46
2013-4-3,62,42,27,38,28,20,90,61,28,23.37,23.29,8,1,8,0.05
2013-4-4,65,48,33,34,26,22,72,45,22,23.37,23.21,10,3,10,0.00
2013-4-5,52,42,31,39,31,23,91,66,34,23.25,23.17,14,2,14,0.05
2013-4-6,54,40,30,36,28,22,76,62,31,23.23,23.19,7,2,7,0.00
2013-4-7,56,43,30,36,27,17,85,57,29,23.19,22.92,9,2,9,0.00
2013-4-8,46,35,22,34,27,15,90,75,30,22.92,22.72,13,1,13,0.04
2013-4-9,28,20,15,18,10,5,86,66,52,23.24,22.81,0,0,0,0.00
2013-4-10,44,30,9,27,17,0,76,58,35,23.29,23.17,5,1,5,0.39
2013-4-11,49,37,30,39,28,22,90,72,46,23.18,23.13,6,0,6,0.15
2013-4-12,55,39,24,32,23,17,77,54,29,23.22,23.13,12,1,12,0.14
2013-4-13,46,38,28,35,25,14,86,61,31,23.12,22.85,11,2,11,0.06
2013-4-14,40,31,22,18,4,-8,74,33,21,23.04,22.89,9,1,9,0.01
2013-4-15,43,31,25,32,22,17,84,70,54,22.94,22.84,5,0,5,0.18
2013-4-16,30,27,21,20,16,10,78,65,51,23.09,22.86,0,0,0,0.00
2013-4-17,34,24,15,16,8,3,66,51,32,23.27,23.08,5,1,5,0.06
2013-4-18,40,30,18,7,1,-11,50,30,21,23.40,23.26,13,2,13,0.00
2013-4-19,49,34,21,28,18,7,77,53,35,23.39,23.21,8,1,8,0.06
2013-4-20,47,37,31,35,28,21,86,71,54,23.31,23.17,8,1,8,0.08
2013-4-21,55,41,25,30,22,17,76,50,26,23.33,23.21,8,1,8,0.01
2013-4-22,43,37,27,30,22,9,72,55,31,23.27,23.19,5,1,5,0.01
2013-4-23,44,33,20,20,10,-1,71,42,21,23.33,23.25,7,1,7,0.00
2013-4-24,52,39,22,15,11,5,54,33,21,23.37,23.27,6,1,6,0.00
2013-4-25,61,43,26,20,13,0,55,32,19,23.31,23.21,9,2,9,0.00
2013-4-26,63,46,28,20,17,10,60,34,17,23.47,23.31,9,2,9,0.06
2013-4-27,65,49,32,26,20,15,58,35,17,23.48,23.38,4,1,4,0.00
2013-4-28,70,53,36,30,24,20,62,36,16,23.37,23.23,5,1,5,0.00
2013-4-29,67,52,34,31,25,19,68,38,19,23.26,23.05,6,1,6,0.00
2013-4-30,53,44,30,30,17,-2,65,36,20,23.25,23.05,8,1,8,0.00
2013-5-1,40,32,24,21,8,-7,61,36,22,23.62,23.24,4,1,4,0.00
2013-5-2,54,39,20,18,12,6,66,37,19,23.68,23.53,6,1,6,0.00
2013-5-3,66,47,28,22,17,13,63,33,16,23.53,23.23,8,2,8,0.00
2013-5-4,66,48,30,23,18,11,58,33,18,23.24,23.13,7,1,7,0.00
2013-5-7,58,48,36,40,34,28,81,58,35,23.23,23.15,13,2,13,0.00
2013-5-8,59,44,32,42,36,28,90,75,43,23.32,23.21,13,1,13,0.02
2013-5-9,64,49,33,42,32,21,95,57,20,23.39,23.30,9,1,9,0.00
2013-5-10,71,53,35,38,30,20,83,48,17,23.50,23.38,13,1,13,0.00
2013-5-11,74,56,38,38,28,19,76,41,14,23.52,23.47,7,1,7,0.00
2013-5-12,77,59,40,35,28,22,65,36,15,23.52,23.44,8,1,8,0.00
2013-5-13,84,65,45,39,31,24,63,33,14,23.47,23.34,10,1,10,0.00
2013-5-14,81,66,48,40,31,22,57,30,12,23.35,23.24,9,1,9,0.00
2013-5-15,81,64,46,42,33,23,69,35,14,23.28,23.16,11,2,11,0.00
2013-5-16,76,62,48,41,36,23,69,41,16,23.20,23.09,12,2,12,0.00
2013-5-17,64,51,43,44,37,27,89,61,27,23.20,23.13,13,1,13,0.04
2013-5-18,51,44,36,43,38,29,99,80,47,23.26,23.18,4,1,4,0.06
2013-5-19,53,43,33,42,34,29,99,72,43,23.31,23.23,7,1,7,0.07
2013-5-20,57,46,40,42,38,34,89,72,52,23.35,23.26,6,1,6,0.00
2013-5-21,68,53,35,43,32,21,94,52,21,23.35,23.11,11,2,11,0.00
2013-5-22,75,61,42,35,26,18,71,30,13,23.11,22.96,15,4,15,0.00
2013-5-23,70,52,31,35,27,18,78,45,15,23.20,23.01,17,2,17,0.00
2013-5-24,68,52,30,32,22,17,66,34,15,23.28,23.21,11,2,11,0.00
2013-5-25,72,58,42,31,22,15,55,28,13,23.23,23.17,9,2,9,0.00
2013-5-26,72,59,41,28,21,14,59,25,12,23.22,23.15,15,2,15,0.00
2013-5-27,66,57,44,39,30,23,61,37,21,23.24,23.13,8,1,8,0.00
2013-5-28,62,47,39,42,36,24,94,67,33,23.13,23.00,8,1,8,0.01
2013-5-29,54,44,35,44,34,30,99,71,42,23.16,23.06,4,1,4,0.08
2013-5-30,58,46,32,44,32,24,98,63,32,23.25,23.15,7,1,7,0.00
2013-5-31,57,48,35,31,22,12,78,40,20,23.44,23.24,7,2,7,0.00
2013-6-1,70,53,31,36,26,19,75,41,15,23.45,23.32,6,1,6,0.00
2013-6-2,81,65,44,34,26,18,64,27,12,23.33,23.10,10,2,10,0.00
2013-6-3,70,61,42,37,23,14,55,27,13,23.29,23.11,8,2,8,0.00
2013-6-4,76,57,36,35,26,18,70,35,13,23.36,23.27,6,1,6,0.00
2013-6-5,73,58,38,39,31,18,84,41,14,23.37,23.32,7,1,7,0.00
2013-6-6,79,61,40,43,33,16,83,41,12,23.37,23.34,6,1,6,0.00
2013-6-7,136,64,44,44,38,31,78,43,19,23.36,23.26,4,1,4,0.00
2013-6-8,78,65,51,45,33,18,69,35,13,23.37,23.25,4,1,4,0.00
2013-6-9,84,69,46,43,35,26,72,34,13,23.37,23.27,8,2,8,0.00
2013-6-10,87,73,57,41,30,20,47,23,11,23.30,23.18,11,2,11,0.00
2013-6-11,77,65,52,38,27,16,53,27,12,23.35,23.19,10,2,10,0.00
2013-6-12,81,66,46,42,33,24,69,34,14,23.36,23.27,12,2,12,0.00
2013-6-13,82,70,50,45,32,22,56,27,12,23.32,23.15,9,2,9,0.00
2013-6-14,69,55,36,38,33,27,78,47,26,23.39,23.31,5,1,5,0.00
2013-6-15,76,58,36,40,30,17,76,41,12,23.35,23.30,11,2,11,0.00
2013-6-16,53,52,50,31,30,29,46,44,40,23.35,23.34,2,2,2,0.00
2013-6-17,84,65,42,39,27,16,71,29,11,23.37,23.30,5,1,5,0.00
2013-6-18,84,66,46,34,25,18,57,25,11,23.29,23.11,10,2,10,0.00
2013-6-19,77,62,42,34,22,16,44,22,13,23.25,23.06,15,2,15,0.00
2013-6-20,69,53,33,35,26,19,72,39,15,23.28,23.21,6,1,6,0.00
2013-6-21,72,57,36,39,32,20,83,43,15,23.26,23.21,11,2,11,0.00
2013-6-22,72,56,40,39,33,22,79,45,18,23.31,23.24,10,1,10,0.00
2013-6-23,77,61,38,36,29,19,75,36,13,23.12,23.12,9,2,10,0.00
2013-6-24,80,63,51,45,33,25,77,36,15,23.23,23.10,9,2,9,0.00
2013-6-25,73,60,44,50,44,40,89,58,34,23.33,23.22,13,1,13,0.31
2013-6-26,84,70,52,51,45,40,70,43,23,23.45,23.44,4,1,8,0.00
2013-6-27,89,69,50,53,47,43,80,50,22,23.54,23.46,4,1,4,0.00
2013-6-28,93,75,53,54,43,31,78,38,12,23.56,23.46,10,1,10,0.00
2013-6-29,90,74,53,52,42,31,72,37,12,23.49,23.38,4,1,4,0.00
2013-6-30,89,76,58,54,42,30,64,32,13,23.47,23.38,5,1,5,0.00
2013-7-1,92,74,54,52,42,30,69,37,13,23.49,23.40,8,1,8,0.01
2013-7-2,89,74,54,51,43,29,72,37,12,23.48,23.38,9,1,9,0.00
2013-7-3,87,72,54,54,48,43,76,45,25,23.43,23.32,4,1,4,0.00
2013-7-4,81,69,55,65,54,44,99,62,32,23.43,23.25,9,1,9,2.19
2013-7-5,82,67,54,61,54,45,99,66,37,23.35,23.22,8,2,8,0.47
2013-7-6,78,63,52,58,52,42,96,72,30,23.33,23.25,8,2,8,0.00
2013-7-9,88,78,59,54,38,24,45,25,12,23.49,23.43,8,1,8,0.00
2013-7-10,90,71,48,48,38,25,74,35,12,23.46,23.34,8,1,8,0.00
2013-7-11,86,68,59,52,43,27,76,43,23,23.37,23.28,5,1,5,0.00
2013-7-12,71,62,55,58,54,49,98,76,49,23.40,23.32,6,2,6,0.13
2013-7-13,79,68,57,58,54,49,82,62,37,23.45,23.35,6,1,6,0.00
2013-7-14,84,70,51,59,50,37,88,54,21,23.45,23.38,4,1,4,0.00
2013-7-15,90,71,53,57,50,44,82,51,21,23.42,23.30,7,1,7,0.00
2013-7-16,86,69,60,60,55,47,93,63,36,23.45,23.33,56,1,56,1.24
2013-7-17,84,70,56,64,56,52,93,65,37,23.50,23.42,8,1,8,0.01
2013-7-18,87,72,53,60,51,44,93,53,23,23.49,23.40,6,1,6,0.00
2013-7-19,91,74,52,55,42,28,79,39,11,23.45,23.35,4,2,4,0.00
2013-7-20,92,73,51,50,38,28,71,36,11,23.39,23.30,4,2,6,0.00
2013-7-22,91,81,61,50,34,20,41,19,13,23.39,23.34,5,1,5,0.00
2013-7-23,91,71,51,48,37,28,66,34,11,23.43,23.36,5,1,5,0.00
2013-7-24,79,65,52,51,44,35,67,47,30,23.42,23.36,15,2,15,0.27
2013-7-25,88,71,55,55,45,35,75,44,18,23.47,23.38,6,1,6,0.00
2013-7-26,90,72,52,53,40,25,71,36,13,23.52,23.42,6,1,6,0.00
2013-7-27,75,64,56,56,49,32,84,59,26,23.44,23.32,4,1,4,0.00
2013-7-28,80,64,50,57,50,43,97,64,36,23.34,23.26,8,2,8,0.01
2013-7-29,76,63,52,54,48,46,84,61,39,23.43,23.30,6,2,6,0.00
2013-7-30,86,70,54,51,42,32,73,41,19,23.51,23.42,10,2,10,0.00
2013-7-31,90,73,58,47,37,24,54,30,12,23.52,23.40,8,2,8,0.00
2013-8-1,88,71,54,54,48,39,67,47,23,23.41,23.26,12,3,12,0.08
2013-8-2,84,69,50,54,38,22,82,39,12,23.36,23.28,10,2,10,0.00
2013-8-3,87,72,56,40,30,21,50,24,11,23.42,23.34,9,2,9,0.00
2013-8-4,88,73,56,45,36,29,53,28,14,23.44,23.36,8,2,8,0.00
2013-8-5,89,71,56,48,39,30,57,33,18,23.42,23.34,8,2,9,0.00
2013-8-6,88,71,53,49,38,22,65,32,12,23.37,23.33,5,1,5,0.00
2013-8-7,87,67,49,45,39,28,71,40,16,23.39,23.31,12,2,12,0.00
2013-8-8,84,63,48,53,43,32,85,52,18,23.42,23.33,11,1,11,0.06
2013-8-9,86,63,46,46,40,24,81,48,13,23.43,23.34,18,2,18,0.00
2013-8-10,83,68,55,52,39,25,55,35,14,23.44,23.38,11,3,11,0.02
2013-8-11,85,68,52,51,39,29,66,36,16,23.45,23.38,9,2,9,0.01
2013-8-12,79,66,53,45,39,30,62,38,19,23.45,23.38,15,3,15,0.00
2013-8-13,84,66,48,48,37,24,74,40,14,23.45,23.40,7,1,7,0.00
2013-8-14,88,68,49,45,34,22,64,33,11,23.45,23.38,9,2,9,0.00
2013-8-15,91,69,49,46,32,21,57,30,11,23.45,23.39,8,1,8,0.00
2013-8-16,92,70,49,41,32,23,53,28,12,23.47,23.41,7,1,7,0.00
2013-8-17,87,65,52,62,46,36,89,54,22,23.52,23.41,17,2,17,0.20
2013-8-18,86,68,48,57,46,38,94,53,22,23.47,23.39,7,1,7,0.00
2013-8-19,88,68,53,56,48,40,79,55,23,23.47,23.40,8,1,8,0.09
2013-8-20,85,67,53,58,51,48,85,61,31,23.43,23.36,8,1,8,0.00
2013-8-21,83,68,51,58,49,39,88,55,24,23.44,23.38,8,1,8,0.00
2013-8-22,79,64,53,56,50,44,96,63,33,23.49,23.36,10,2,10,0.13
2013-8-23,70,59,54,55,53,50,97,81,51,23.44,23.30,12,2,12,0.08
2013-8-24,76,61,47,54,49,40,99,67,28,23.39,23.31,8,2,8,0.00
2013-8-25,79,65,52,51,48,45,79,56,34,23.44,23.38,9,3,9,0.00
2013-8-26,69,62,58,55,51,47,84,68,53,23.47,23.40,8,3,8,0.00
2013-8-27,70,63,55,56,53,50,98,71,55,23.43,23.36,8,2,8,0.27
2013-8-28,81,67,52,63,52,43,99,64,31,23.45,23.38,9,2,9,0.00
2013-8-29,86,66,51,62,51,47,88,62,35,23.50,23.44,5,1,5,0.13
2013-8-30,87,69,52,60,51,46,88,58,29,23.50,23.40,5,1,5,0.00
2013-8-31,88,66,53,62,52,39,90,65,23,23.44,23.39,8,1,8,0.24
2013-9-1,75,63,54,57,54,50,91,74,46,23.41,23.33,8,1,8,0.04
2013-9-2,77,68,61,61,55,49,88,64,42,23.41,23.35,9,2,9,0.00
2013-9-3,81,67,53,59,53,46,92,64,32,23.45,23.39,6,1,6,0.00
2013-9-4,81,67,51,56,52,45,94,63,30,23.51,23.44,10,1,10,0.00
2013-9-5,83,71,59,54,50,42,78,50,25,23.50,23.40,11,2,11,0.00
2013-9-6,84,71,59,56,46,31,67,44,18,23.47,23.35,9,2,9,0.02
2013-9-7,83,63,51,55,51,44,99,69,34,23.47,23.36,8,1,8,0.43
2013-9-8,61,54,49,54,51,47,99,92,75,23.40,23.30,7,1,7,0.20
2013-9-9,74,59,46,57,48,41,99,72,42,23.31,23.25,15,1,15,0.00
2013-9-10,68,57,52,55,49,44,94,75,54,23.35,23.29,10,1,10,0.04
2013-9-11,69,59,51,60,53,49,99,81,55,23.41,23.34,7,1,7,0.41
2013-9-12,68,55,48,61,50,48,99,85,55,23.45,23.33,9,1,9,0.47
2013-9-13,58,52,47,56,51,47,99,97,87,23.35,23.22,4,0,4,0.65
2013-9-14,61,52,47,58,51,47,99,94,78,23.29,23.21,4,0,4,0.35
2013-9-15,68,54,43,59,48,42,99,82,54,23.35,23.28,9,1,9,0.00
2013-9-16,72,60,50,54,48,40,91,68,32,23.37,23.30,8,2,8,0.00
2013-9-17,77,62,50,57,47,37,89,61,35,23.31,23.08,10,2,10,0.06
2013-9-18,66,55,36,42,35,26,68,48,31,23.32,23.08,15,2,15,0.00
2013-9-19,62,46,32,39,31,26,86,58,33,23.39,23.31,8,1,8,0.00
2013-9-20,70,52,33,39,32,23,83,52,17,23.37,23.23,11,2,11,0.00
2013-9-21,74,59,43,43,34,25,69,42,19,23.26,23.05,15,2,15,0.00
2013-9-22,60,54,49,44,37,32,68,54,36,23.16,23.00,10,2,10,0.00
2013-9-23,59,49,39,38,34,24,81,56,26,23.37,23.16,6,2,6,0.00
2013-9-24,68,56,40,36,28,17,74,38,15,23.36,23.08,14,3,14,0.00
2013-9-25,60,46,33,41,31,22,97,62,24,23.08,22.93,12,2,12,0.14
2013-9-26,41,36,33,39,34,32,97,93,84,23.08,22.99,4,0,4,0.12
2013-9-27,41,34,28,36,29,23,98,82,58,23.36,23.07,8,1,8,0.18
2013-9-28,53,40,26,36,27,18,90,62,33,23.41,23.34,6,2,6,0.00
2013-9-29,64,52,40,32,25,18,55,36,21,23.36,23.24,11,2,11,0.00
2013-9-30,66,56,42,34,27,20,72,35,22,23.26,23.19,8,2,8,0.00
2013-10-1,67,52,36,38,30,21,81,47,18,23.27,23.21,8,2,11,0.00
2013-10-2,64,48,36,42,34,27,95,61,26,23.25,23.10,11,1,11,0.04
2013-10-3,44,36,29,42,30,19,99,78,48,23.20,23.05,10,2,10,0.04
2013-10-4,39,31,25,29,24,19,92,76,59,23.50,23.19,4,0,4,0.06
2013-10-5,50,34,22,35,24,18,89,70,45,23.57,23.49,5,1,5,0.00
2013-10-6,60,42,26,37,29,20,84,62,33,23.57,23.44,3,1,3,0.00
2013-10-7,68,50,33,32,25,16,76,43,16,23.44,23.21,11,2,11,0.00
2013-10-8,63,52,35,28,21,14,65,32,19,23.20,23.07,11,2,11,0.00
2013-10-9,57,44,29,36,28,22,80,57,28,23.08,23.01,12,2,12,0.00
2013-10-10,46,39,36,39,36,33,95,87,71,23.11,22.96,5,1,5,0.14
2013-10-11,51,37,28,40,28,23,96,73,42,23.28,23.10,5,1,5,0.00
2013-10-12,54,42,29,38,27,20,90,59,28,23.27,23.18,9,2,9,0.07
2013-10-13,50,41,36,40,35,32,97,81,53,23.21,23.14,9,1,9,0.18
2013-10-14,42,36,30,37,31,26,96,81,57,23.37,23.20,6,1,6,0.07
2013-10-15,41,33,25,28,24,17,91,72,51,23.37,23.33,5,1,5,0.00
2013-10-16,45,33,20,28,20,15,86,62,34,23.37,23.32,7,1,7,0.00
2013-10-17,52,36,24,28,21,16,75,56,30,23.33,23.25,8,1,8,0.00
2013-10-18,48,36,27,33,22,18,77,59,35,23.39,23.31,6,1,6,0.00
2013-10-19,53,37,23,32,19,14,82,53,21,23.39,23.30,6,1,6,0.00
2013-10-20,52,40,28,29,20,15,71,48,23,23.31,23.22,6,1,6,0.00
2013-10-21,54,38,25,34,23,20,85,58,28,23.42,23.30,4,1,4,0.00
2013-10-22,59,41,26,34,24,18,85,56,23,23.44,23.38,3,1,3,0.00
2013-10-23,61,42,27,35,24,21,83,53,21,23.38,23.31,4,1,4,0.00
2013-10-24,62,43,28,34,24,21,79,53,21,23.37,23.31,6,1,6,0.00
2013-10-25,60,44,33,34,24,19,69,48,21,23.45,23.37,5,1,5,0.00
2013-10-26,58,42,27,34,22,15,82,50,21,23.50,23.39,6,1,6,0.00
2013-10-27,62,46,31,34,22,16,64,41,20,23.39,22.97,13,2,13,0.00
2013-10-28,52,42,32,34,30,19,94,66,28,22.99,22.80,23,4,23,0.01
2013-10-29,39,32,26,33,29,22,96,86,72,23.11,22.96,2,0,2,0.00
2013-10-30,37,30,22,31,25,19,92,82,69,23.21,23.10,6,1,6,0.05
2013-10-31,42,35,31,32,27,25,85,73,60,23.31,23.21,7,1,7,0.15
2013-11-1,49,38,28,32,29,22,84,69,47,23.43,23.30,9,2,9,0.04
2013-11-2,59,42,25,26,18,10,86,44,19,24.12,23.03,15,3,15,0.00
2013-11-3,48,30,16,26,15,5,87,56,26,23.15,22.98,11,2,11,0.00
2013-11-4,30,22,15,22,12,5,74,66,49,23.22,23.10,7,1,7,0.00
2013-11-5,31,21,15,17,12,6,82,67,51,23.42,23.21,7,1,7,0.01
2013-11-6,41,30,18,26,18,8,78,63,50,23.54,23.40,8,2,8,0.02
2013-11-7,53,41,26,32,22,14,78,51,24,23.53,23.24,14,3,14,0.00
2013-11-8,53,42,32,27,21,17,64,45,24,23.28,23.22,10,2,10,0.00
2013-11-9,60,39,27,28,21,16,74,52,22,23.40,23.27,7,1,7,0.00
2013-11-10,58,38,25,30,20,16,75,53,22,23.44,23.39,5,1,5,0.00
2013-11-11,62,40,27,28,19,15,68,48,19,23.58,23.43,6,1,6,0.00
2013-11-12,61,40,25,27,20,16,69,47,21,23.62,23.53,5,1,5,0.00
2013-11-13,55,42,31,29,21,14,74,46,21,23.53,23.36,5,1,5,0.00
2013-11-14,48,34,20,31,20,5,83,58,22,23.39,23.00,8,2,8,0.00
2013-11-15,37,29,18,31,22,14,92,76,46,23.00,22.90,5,1,5,0.01
2013-11-16,32,28,20,28,23,16,91,82,62,22.98,22.80,0,0,0,0.00
2013-11-17,40,30,22,30,23,18,90,75,61,23.31,22.97,8,2,8,0.07
2013-11-18,49,37,27,30,24,18,76,60,44,23.34,23.19,11,4,11,0.06
2013-11-19,44,38,32,35,29,22,93,74,47,23.19,23.13,12,2,12,0.07
2013-11-20,45,36,31,35,32,29,93,85,64,23.14,23.05,8,1,8,0.05
2013-11-21,34,26,13,32,22,7,96,86,75,23.44,23.07,2,0,2,0.01
2013-11-22,23,15,9,11,6,0,79,66,53,23.49,23.42,0,0,0,0.00
2013-11-23,32,18,4,15,6,-4,73,59,31,23.44,23.32,0,0,0,0.00
2013-11-24,37,26,16,25,17,9,80,70,52,23.35,23.26,3,0,3,0.04
2013-11-25,42,25,14,23,14,8,80,66,43,23.52,23.34,7,1,7,0.04
2013-11-26,48,28,17,28,17,10,78,63,41,23.52,23.43,3,1,3,0.07
2013-11-27,48,30,21,24,16,12,73,58,26,23.43,23.27,4,1,4,0.04
2013-11-28,51,33,22,23,17,8,70,55,24,23.32,23.25,6,1,6,0.00
2013-11-29,46,31,22,27,19,15,75,62,40,23.42,23.32,4,1,4,0.00
2013-11-30,44,28,18,26,17,10,78,64,36,23.44,23.38,4,1,4,0.00
2013-12-1,46,36,24,29,25,17,77,64,43,23.43,23.28,8,2,8,0.00
2013-12-2,46,36,32,30,26,16,90,68,32,23.29,22.90,11,2,11,0.00
2013-12-3,32,20,11,30,15,5,91,80,74,22.91,22.80,0,0,0,0.00
2013-12-4,12,5,-6,5,-6,-17,76,62,48,23.08,22.81,0,0,0,0.00
2013-12-5,8,-1,-10,-5,-13,-22,62,56,53,23.08,23.00,0,0,0,0.00
2013-12-6,12,3,-6,-1,-9,-17,63,56,45,23.10,23.05,0,0,0,0.00
2013-12-7,18,12,6,8,3,-6,73,67,53,23.04,22.80,10,2,10,0.00
2013-12-8,13,5,-3,2,-7,-15,69,58,50,23.15,22.88,0,0,0,0.00
2013-12-9,9,0,-10,-4,-12,-23,65,56,48,23.44,23.15,3,0,3,0.00
2013-12-10,25,11,-3,11,-1,-14,66,60,48,23.43,23.30,4,1,4,0.00
2013-12-11,28,13,2,13,3,-7,70,64,51,23.50,23.36,3,1,3,0.00
2013-12-12,38,17,6,24,7,-3,72,65,50,23.49,23.21,3,1,3,0.02
2013-12-13,31,19,10,15,9,1,71,63,45,23.44,23.21,8,1,8,0.00
2013-12-14,27,18,8,16,10,-1,78,69,61,23.58,23.43,6,2,6,0.00
2013-12-15,38,22,11,22,12,4,76,66,48,23.57,23.50,5,1,5,0.01
2013-12-16,45,25,15,25,12,6,71,58,41,23.57,23.50,4,1,4,0.07
2013-12-17,46,26,14,24,12,4,68,56,37,23.58,23.34,4,1,4,0.02
2013-12-18,48,35,23,31,19,10,85,53,28,23.34,22.92,8,2,8,0.04
2013-12-19,35,30,23,31,26,18,88,84,78,23.01,22.81,6,0,7,0.08
2013-12-20,24,19,12,18,12,4,82,74,66,23.06,22.94,0,0,0,0.00
2013-12-21,27,20,14,19,13,8,79,74,67,23.20,22.90,0,0,0,0.00
2013-12-22,26,23,15,21,17,9,81,77,71,23.42,23.19,0,0,0,0.00
2013-12-23,34,29,24,27,24,19,85,81,75,23.52,23.41,0,0,0,0.00
2013-12-24,36,25,8,28,13,-2,85,62,31,23.54,23.35,6,0,6,0.00
2013-12-25,32,14,5,14,2,-4,71,60,42,23.59,23.53,2,0,2,0.00
2013-12-26,39,20,8,16,6,-2,67,54,26,23.56,23.49,4,1,4,0.05
2013-12-27,45,25,14,26,13,5,73,62,46,23.53,23.33,3,1,3,0.08
2013-12-28,42,26,15,22,13,6,70,60,35,23.35,23.21,6,1,6,0.04
2013-12-29,30,16,7,15,4,-2,70,59,37,23.40,23.34,4,1,4,0.00
2013-12-30,35,22,14,14,8,3,66,55,36,23.45,23.36,6,2,6,0.00
2013-12-31,41,31,20,27,21,9,83,66,48,23.37,23.30,7,2,7,0.04
2014-1-1,40,28,16,22,15,7,68,59,43,23.45,23.30,8,-2,8,0.00
2014-1-2,41,24,15,21,11,6,70,59,41,23.45,23.31,4,1,4,0.00